Location: Newark
(15.5700°N, 75.3700°E)
Time: 23:28:01
(UTC+00:00)

ISS - Pass Details

Date: 15 November 2019
Orbit: 411 x 421 km, 51.6° (Epoch: 15 December)

Event Time Altitude Azimuth Distance (km) Brightness Sun altitude
Rises 13:25:10 0° 191° (S) 2,335 0.4 -14.6°
Reaches altitude 10° 13:27:39 10° 172° (S) 1,478 -0.9 -15.2°
Enters shadow 13:29:48 19° 131° (SE) 1,062 -2.0 -15.7°
